Regional Weather Roundup
Issued by NWS Charleston, SC

Current Version | Previous Version | Graphics & Text | Print | Product List | Glossary On
Versions: 1 2 3 4 5 6 7 8 9 10 11 12 13 14 15 16 17 18 19 20 21 22 23 24 25 26 27 28 29 30 31 32 33 34 35 36 37 38 39 40 41 42 43 44 45 46 47 48 49 50
876
ASUS42 KCHS 200627
RWRCHS

REGIONAL WEATHER ROUNDUP
NATIONAL WEATHER SERVICE CHARLESTON SC
100 AM EST MON FEB 20 2017

NOTE: "FAIR" INDICATES FEW OR NO CLOUDS BELOW 12,000 FEET WITH NO
SIGNIFICANT WEATHER AND/OR OBSTRUCTIONS TO VISIBILITY.

NOT ALL STATIONS ARE QUALITY CONTROLLED. USE DATA WITH CAUTION...
ESPECIALLY DEWPOINT OBSERVATIONS.

SCZ027-030-031-034>040-042>050-200700-
...SOUTHEAST SOUTH CAROLINA...

CITY           SKY/WX    TMP DP  RH WIND       PRES   REMARKS
N CHARLESTON   CLEAR     53  47  79 CALM      30.09S
6HR MIN TEMP:  52; 6HR MAX TEMP:  66;

WATERFRONT PRK   N/A     61  51  70 VRB2      30.08S
MOUNT PLEASANT LGT RAIN  50  48  93 CALM      30.10R
JOHNS ISLAND   FAIR      50  48  93 NW3       30.11R
PINOPOLIS        N/A     55  52  88 CALM      30.00R
MONCKS CORNER  FAIR      46  45  93 CALM      30.10R
SUMMERVILLE    FAIR      46  45  93 CALM      30.12R
BEAUFORT MCAS  CLEAR     52  49  89 CALM      30.12R
6HR MIN TEMP:  52; 6HR MAX TEMP:  63;

BEAUFORT ARPT  FAIR      54  50  87 CALM      30.11R
HILTON HEAD IS CLEAR     52  50  93 CALM      30.13R
WALTERBORO     CLEAR     46  45  93 CALM      30.12R
ALLENDALE      FAIR      50  48  93 CALM      30.11S

...SOUTHERN MIDLANDS AND PEE DEE...

CITY           SKY/WX    TMP DP  RH WIND       PRES   REMARKS
GEORGETOWN     FAIR      45  45 100 CALM      30.10R
KINGSTREE      FAIR      45  43  93 CALM      30.10R
ORANGEBURG     CLEAR     51  48  89 CALM      30.12R
6HR MIN TEMP:  50; 6HR MAX TEMP:  67;

BARNWELL       FAIR      48  46  93 CALM      30.13R
AIKEN          FAIR      46  45  93 CALM      30.16S
MANNING        FAIR      45  43  93 MISG      30.10R
COLUMBIA       CLEAR     48  45  89 W3        30.12R
6HR MIN TEMP:  47; 6HR MAX TEMP:  62;

SUMTER         CLEAR     51  45  81 CALM      30.09R
6HR MIN TEMP:  48; 6HR MAX TEMP:  65;

FLORENCE       CLEAR     47  46  97 NW3       30.10R
6HR MIN TEMP:  46; 6HR MAX TEMP:  64;

MYRTLE BEACH   CLEAR     51  47  86 CALM      30.08S
N MYRTLE BEACH CLEAR     48  47  96 CALM      30.07S
6HR MIN TEMP:  48; 6HR MAX TEMP:  62;


$$

GAZ063-065-086>088-099>101-113>116-118-119-134>141-150-200700-
...SOUTHEAST GEORGIA...

CITY           SKY/WX    TMP DP  RH WIND       PRES   REMARKS
SAVANNAH ARPT  PTCLDY    53  48  83 CALM      30.13R
6HR MIN TEMP:  52; 6HR MAX TEMP:  66;

HUNTER AAF     CLEAR     53  51  95 CALM      30.09R
6HR MIN TEMP:  52; 6HR MAX TEMP:  66;

FORT STEWART   CLEAR     52  48  89 CALM      30.10R
6HR MIN TEMP:  51; 6HR MAX TEMP:  63;

STATESBORO     CLEAR     49  49 100 CALM      30.13S
SYLVANIA       CLEAR    N/A N/A N/A CALM      30.14R
CLAXTON        FAIR     N/A N/A N/A CALM      30.13S

...CSRA...CENTRAL AND FAR SOUTHEAST GEORGIA...

CITY           SKY/WX    TMP DP  RH WIND       PRES   REMARKS
THOMSON        CLEAR     48  48 100 CALM      30.18S
AUGUSTA-BUSH   CLEAR     48  45  89 CALM      30.13R FOG
6HR MIN TEMP:  47; 6HR MAX TEMP:  64;

AUGUSTA-DANIEL CLEAR     58  47  66 NW6       30.14R
SWAINSBORO     FAIR      50  48  93 NW3       30.14S
VIDALIA        CLEAR     59  54  82 NW5       30.13S
EASTMAN        FAIR      49  49 100 CALM      30.16S FOG
HAZLEHURST     FAIR      55  55 100 CALM      30.12S
ALMA           PTCLDY    51  51 100 CALM      30.12R
6HR MIN TEMP:  50; 6HR MAX TEMP:  67;

WAYCROSS       CLEAR     56  56 100 CALM      30.12S
JESUP          FAIR      52  50  93 CALM      30.12S
BAXLEY         FAIR      52  52 100 CALM      30.12S
BRUNSWICK      FOG       54  54 100 CALM      30.12S VSB 1/4
SAINT SIMONS   CLEAR     57  56  96 CALM      30.11R
6HR MIN TEMP:  57; 6HR MAX TEMP:  65;


$$

SCZ027-028-034-036>038-045-046-048>050-GAZ119-141-200700-
...LAKE AND SUPPLEMENTAL COASTAL OBSERVATIONS...

STATION/POSITION TIME  TEMP    WIND        PRES    WAVE   SWELL
                       AIR SEA DIR/SP/G            HT/PER HT/PER/DIR
                 (UTC) (F)     (DEG/KT/KT) (MB)    (FT/S) (FT/S/D)
WINYAH BAY       0545   57     320/  5     1018.0S
LAKE MURRAY      0620   54        CALM     1019.6
ACE BASIN NERRS  0545   51        CALM     1019.0R
FORT PULASKI     0600   59 60  300/  4/  4 1020.1
SAPELO ISLAND    0600   56        CALM     1020.0

$$

ANZ835-935-AMZ111-154-330-350-352-354-370-450-454-472-200700-
...C-MAN AND BUOY OBSERVATIONS...

STATION/POSITION TIME  TEMP    WIND        PRES    WAVE   SWELL
                       AIR SEA DIR/SP/G            HT/PER HT/PER/DIR
                 (UTC) (F)     (DEG/KT/KT) (MB)    (FT/S) (FT/S/D)
BUOY 41004       0550   67 69  350/ 10/ 10 1018.2R   1/ 4
BUOY 41008       0550   63 62  230/  8/  8 1019.3R   1
FOLLY BEACH CMAN 0600   58     280/  4/  5 1019.5R
CAPERS NEARSHORE 0608   60 60  340/  4/  6 1018.6R
FRIPP NEARSHORE  0608   60 60  280/  2/  4 1019.3R


STATION/POSITION TIME  TEMP    WIND        PRES    WAVE   SWELL
                       AIR SEA DIR/SP/G            HT/PER HT/PER/DIR
                 (UTC) (F)     (DEG/KT/KT) (MB)    (FT/S) (FT/S/D)
5E ST. MARYS GA  0600      64                N/A     1
FRYING PAN BUOY  0610   63 64  310/ 10/ 12 1018.0
BUOY 41025       0550   63 67  340/  4/  6 1017.2F   2/ 7   2/130/ 7
CAPE LOOKOUT NC  0600   56     300/  4/  5 1017.1S
BUOY 41002       0550   70 71  350/ 17/ 19 1015.4F   6/ 7   3/290/ 7
BUOY 41010       NOT AVBL
ST AUGUSTINE FL  0600   60 67  250/  6/  6 1020.2S


$$




USA.gov is the U.S. government's official web portal to all federal, state and local government web resources and services.